Regional Weather Roundup
Issued by NWS Boston, MA

Home | Current Version | Previous Version | Text Only | Print | Product List | Glossary On
Versions: 1 2 3 4 5 6 7 8 9 10 11 12 13 14 15 16 17 18 19 20 21 22 23 24 25 26 27 28 29 30 31 32 33 34 35 36 37 38 39 40 41 42 43 44 45 46 47 48 49 50
000
ASUS41 KBOX 222310
RWRBOX

REGIONAL WEATHER ROUNDUP
NATIONAL WEATHER SERVICE TAUNTON MA
700 PM EDT TUE JUL 22 2014

NOTE:  "FAIR" INDICATES FEW OR NO CLOUDS BELOW 12,000 FEET WITH NO
SIGNIFICANT WEATHER AND/OR OBSTRUCTIONS TO VISIBILITY.  THE FOLLOWING
OBSERVATION LOCATIONS DO NOT REPORT PRESENT WEATHER...PROVINCETOWN...
SMITHFIELD...BLOCK ISLAND...KEENE...AND OXFORD.

MAZALL-230000-
EASTERN MASSACHUSETTS

CITY           SKY/WX    TMP DP  RH WIND       PRES   REMARKS
BOSTON         MOSUNNY   84  68  58 S10       29.99F
BEVERLY        SUNNY     81  68  64 SE5       29.99F
LAWRENCE       SUNNY     86  66  51 VRB6      30.01F
BEDFORD        SUNNY     84  66  54 SW9       29.99S
BLUE HILL        N/A     81  68  64 S13       30.03F
NORWOOD        SUNNY     83  68  60 S8        30.01S
MARSHFIELD     SUNNY     82  68  61 SW8G20    30.03F
PLYMOUTH       SUNNY     79  65  62 SW9G21    30.04F
TAUNTON        SUNNY     80  68  66 S9        30.03F
NEW BEDFORD    SUNNY     77  66  68 SW8       30.04F
$$

MAZALL-230000-
CAPE COD AND THE ISLANDS

CITY           SKY/WX    TMP DP  RH WIND       PRES   REMARKS
FALMOUTH       SUNNY     75  66  73 SW13G20   30.06F
HYANNIS        SUNNY     76  66  71 SW17G24   30.05F
CHATHAM        SUNNY     72  67  84 SW8       30.07F
PROVINCETOWN   SUNNY     75  66  73 S14       30.04F
NANTUCKET      SUNNY     69  64  84 SW13      30.08F
MARTHAS VNYRD  SUNNY     72  66  81 SW10      30.07F
$$

MAZALL-230000-
CENTRAL AND WESTERN MASSACHUSETTS

CITY           SKY/WX    TMP DP  RH WIND       PRES   REMARKS
WORCESTER      SUNNY     81  65  58 SW9       30.06F
FITCHBURG      SUNNY     86  65  49 SW6       30.02S
ORANGE           N/A    N/A N/A N/A MISG      30.02S
SPRINGFIELD    MOSUNNY   85  68  55 SW10      30.02R
WESTFIELD      MOSUNNY   85  67  54 S9        30.02S
NORTH ADAMS    PTSUNNY   82  69  64 W3        30.03S
PITTSFIELD     MOSUNNY   80  68  66 SW8       30.06S
$$

RIZALL-230000-
RHODE ISLAND

CITY           SKY/WX    TMP DP  RH WIND       PRES   REMARKS
PROVIDENCE     MOSUNNY   81  67  62 SW10      30.05F
NEWPORT        SUNNY     74  66  76 VRB7      30.06F
BLOCK ISLAND   SUNNY     73  64  73 SW13      30.08F
SMITHFIELD     SUNNY     81  64  57 S6        30.07S
WESTERLY       SUNNY     77  66  68 SW9       30.08S
$$

CTZALL-230000-
CONNECTICUT

CITY           SKY/WX    TMP DP  RH WIND       PRES   REMARKS
BRADLEY INTL   MOSUNNY   86  67  52 SW9       30.02S
HARTFORD       SUNNY     84  66  54 S14       30.02S
BRIDGEPORT     SUNNY     80  69  69 SW13      30.07R
DANBURY        SUNNY     81  67  62 S9        30.08R
GROTON         SUNNY     72  67  84 SW9       30.06F
NEW HAVEN      SUNNY     81  68  64 S9        30.07R
CHESTER        FAIR      77  68  73 SW8       30.09F
MERIDEN        SUNNY     82  68  62 S13       30.05S
WILLIMANTIC    SUNNY     82  67  60 S12       30.05S
$$

MEZ002-015-021-024-NHZ003-005-008-011-012-014-VTZ005-008-230000-
NORTHERN NEW ENGLAND

CITY           SKY/WX    TMP DP  RH WIND       PRES   REMARKS
PORTLAND ME    MOSUNNY   76  64  66 S13       29.98F
BANGOR ME      PTSUNNY   75  65  70 S12       29.96F
CONCORD NH     SUNNY     84  68  58 SW5       29.99F
MANCHESTER NH  MOSUNNY   87  65  47 SW8       29.98S
NASHUA NH      SUNNY     88  65  46 W6        30.00F HX  90
PORTSMOUTH NH  MOSUNNY   80  69  68 S9        29.98F
JAFFREY NH     SUNNY     82  65  56 S7        30.05F
KEENE NH       SUNNY     84  63  48 SW7       30.02S
BURLINGTON VT  PTSUNNY   87  64  46 S5        29.94F
MT. WASHINGTON FOG       55  55 100 W20         N/A  VSB 1/16
$$

NYZ052-076-230000-
EASTERN NEW YORK

CITY           SKY/WX    TMP DP  RH WIND       PRES   REMARKS
ALBANY         MOSUNNY   86  69  56 S13       30.00S HX  90
NEW YORK CITY  MOSUNNY   81  66  60 S13       30.06S
$$

ANZALL-230000-
MARINE OBSERVATIONS

STATION/POSITION TIME  TEMP    WIND        PRES    VSBY  WAVE
                       AIR SEA DIR/SP/G                  HT/PER
                 (UTC) (F)     (DEG/KT/KT) (MB)    (MI)  (FT/S)
BOSTON BUOY      NOT AVBL
BUZZARDS BAY     NOT AVBL
NANTUCKET SOUND  NOT AVBL
MASS BAY-STELLWA NOT AVBL
ISLE OF SHOALS   NOT AVBL
S OF BLOCK IS    NOT AVBL
$$

......................KEY.........................
  SKY/WX - SKY CONDITION/PRESENT WEATHER
  TMP    - TEMPERATURE IN FAHRENHEIT
  DWPT   - DEWPOINT IN FAHRENHEIT
  RH     - RELATIVE HUMIDITY IN PERCENT
  WIND   - DIRECTION AND SPEED IN MPH
  PRES   - MEAN SEA LEVEL PRESSURE IN INCHES OF HG
  WCI    - WIND CHILL INDEX
  VSB    - VISIBILITY IN MILES
  HX     - HEAT INDEX
  TC     - TEMPERATURE IN CELSIUS
  VRB    - VARIABLE WIND DIRECTION
  N/A    - NOT AVAILABLE



USA.gov is the U.S. government's official web portal to all federal, state and local government web resources and services.